This is the latest recevied weather packets stored in our database for station/object W4MLN-1. If no packets are shown the sender has not sent any weather packets the latest 10 day(s).
| Time | Temp. | Humidity | Pressure | Rain* | Wind** | Luminosity | Snow |
|---|---|---|---|---|---|---|---|
| 1777749486 | 11.67° C | 44% | 1012.1 hPa | 0 mm | - | 307 W/m² | - |
| 1777749186 | 11.67° C | 43% | 1012 hPa | 0 mm | - | 339 W/m² | - |
| 1777748887 | 12.22° C | 43% | 1011.9 hPa | 0 mm | - | 804 W/m² | - |
| 1777748586 | 12.78° C | 42% | 1012 hPa | 0 mm | - | 465 W/m² | - |
| 1777748287 | 12.78° C | 43% | 1011.9 hPa | 0 mm | - | 1041 W/m² | - |
| 1777747987 | 12.78° C | 45% | 1011.9 hPa | 0 mm | - | 976 W/m² | - |
| 1777747683 | 12.22° C | 45% | 1011.9 hPa | 0 mm | - | 862 W/m² | - |
| 1777747384 | 12.22° C | 43% | 1011.9 hPa | 0 mm | - | 386 W/m² | - |
| 1777747084 | 11.67° C | 45% | 1012 hPa | 0 mm | - | 692 W/m² | - |
| 1777746784 | 11.67° C | 45% | 1012 hPa | 0 mm | - | 982 W/m² | - |
| 1777746484 | 11.67° C | 45% | 1012.1 hPa | 0 mm | - | 544 W/m² | - |
| 1777746184 | 11.67° C | 45% | 1012 hPa | 0 mm | - | 425 W/m² | - |
| 1777745884 | 11.67° C | 46% | 1012.1 hPa | 0 mm | - | 514 W/m² | - |
| 1777745584 | 12.22° C | 46% | 1012 hPa | 0 mm | - | 475 W/m² | - |
| 1777745284 | 12.22° C | 44% | 1012.1 hPa | 0 mm | - | 1129 W/m² | - |
| 1777744984 | 11.67° C | 46% | 1012.2 hPa | 0 mm | - | 1031 W/m² | - |
| 1777744682 | 11.67° C | 47% | 1012.2 hPa | 0 mm | - | 591 W/m² | - |
| 1777744381 | 11.67° C | 47% | 1012.3 hPa | 0 mm | - | 611 W/m² | - |
| 1777744082 | 11.67° C | 46% | 1012.3 hPa | 0 mm | - | 348 W/m² | - |
| 1777743781 | 11.67° C | 48% | 1012.5 hPa | 0 mm | - | 777 W/m² | - |
| 1777743482 | 12.22° C | 45% | 1012.5 hPa | 0 mm | - | 899 W/m² | - |
| 1777743182 | 11.67° C | 49% | 1012.6 hPa | 0 mm | - | 1011 W/m² | - |
| 1777742882 | 11.67° C | 48% | 1012.6 hPa | 0 mm | - | 1038 W/m² | - |
| 1777742582 | 11.67° C | 44% | 1012.6 hPa | 0 mm | - | 1054 W/m² | - |
| 1777742282 | 11.67° C | 45% | 1012.6 hPa | 0 mm | - | 1031 W/m² | - |
* Rain latest hour (hover to see other rain measurements)
** Current wind speed in m/s (hover to see current wind gust speed)